Location: Mount Graham
(32.7016°N, 109.8912°W)
Time: 04:36:12
(UTC-07:00)

Daily predictions for brighter satellites

Satellite Brightness Start Highest point End
(mag) Time Altitude Azimuth Time Altitude Azimuth Time Altitude Azimuth
CZ-4C R/B 3.1 00:11:12 10° NNW 00:18:26 63° ENE 00:18:45 62° ENE
FALCON 9 R/B 3.9 00:15:56 10° WNW 00:23:35 34° W 00:23:35 34° W
CZ-2C R/B 4.4 00:28:46 38° NE 00:28:46 38° NE 00:33:04 10° N
NOSS 3-4 (A) 4.1 00:41:51 50° NW 00:41:51 50° NW 00:47:50 10° NNE
NOSS 3-4 (C) 4.1 00:41:58 50° NW 00:41:58 50° NW 00:47:56 10° NNE
SL-8 Rocket 4.4 00:44:58 61° N 00:44:58 61° N 00:50:07 10° N
NOSS 3-2 (A) 4.0 00:37:46 10° NNW 00:45:27 78° ENE 00:45:41 77° E
Cosmos 2263 Rocket 3.2 00:53:10 43° NNW 00:53:10 43° NNW 00:57:21 10° N
Cosmos 2218 Rocket 4.3 00:58:56 62° N 00:58:56 62° N 01:04:10 10° N
Cosmos 2366 rocket 4.3 01:09:39 60° NNW 01:09:39 60° NNW 01:14:43 10° N
CZ-2C R/B 4.1 01:09:52 10° N 01:13:07 29° NW 01:13:07 29° NW
Cosmos 2278 Rocket 4.0 01:18:39 21° E 01:18:39 21° E 01:21:58 10° NE
COSMOS 2406 3.9 01:23:18 10° N 01:28:48 50° ENE 01:28:48 50° ENE
Cosmos 1727 Rocket 4.3 01:31:21 10° NNW 01:36:29 58° NW 01:36:29 58° NW
Iridium 4 Rocket 4.3 01:33:34 10° N 01:37:02 48° N 01:37:02 48° N
Okean 1 Rocket 4.4 01:53:31 39° NNE 01:53:31 39° NNE 01:56:23 10° N
Cosmos 1934 Rocket 4.3 01:52:41 54° ESE 01:53:06 55° E 01:59:06 10° NNE
NPP 3.9 01:49:46 10° NNE 01:54:34 63° ENE 01:54:34 63° ENE
CENTAUR R/B 3.6 01:50:52 10° NNW 01:58:41 56° ENE 02:06:48 10° SE
ERS-2 4.2 02:01:01 10° NNE 02:02:51 27° NNE 02:02:51 27° NNE
CZ-4C R/B 4.4 02:00:51 10° WNW 02:03:53 20° W 02:03:53 20° W
CZ-2D R/B 4.1 02:04:34 10° NE 02:08:34 21° E 02:10:16 18° ESE
Meteor 2-14 Rocket 4.4 02:11:40 64° SE 02:12:16 69° E 02:18:18 10° NNE
Cosmos 1000 Rocket 4.3 02:09:10 10° N 02:15:19 78° W 02:15:29 78° WSW
Cosmos 1452 Rocket 4.3 02:17:47 40° NW 02:17:47 40° NW 02:22:10 10° N
Meteor 2-21 Rocket 4.2 02:21:44 77° SW 02:22:10 83° W 02:28:17 10° N
Cosmos 1536 3.8 02:23:24 45° NE 02:23:24 45° NE 02:26:28 10° NNE
ARIANE 5 R/B 3.5 02:17:57 10° NNE 02:22:34 37° E 02:23:15 35° ESE
Cosmos 1420 Rocket 4.0 02:25:30 73° NW 02:25:30 73° NW 02:30:36 10° NNE
IRS-1C 4.0 02:20:33 10° NNE 02:25:55 89° E 02:26:01 86° S
GP-B 3.9 02:23:03 10° N 02:26:16 44° NNW 02:26:16 44° NNW
Cosmos 1844 Rocket 3.6 02:31:31 35° WNW 02:31:43 36° WNW 02:36:54 10° N
Cosmos 1605 Rocket 3.9 02:31:47 60° S 02:33:00 83° E 02:39:17 10° N
CBERS-1 4.2 02:28:14 10° N 02:33:10 60° WNW 02:33:10 60° WNW
Cosmos 1821 Rocket 4.2 02:33:34 53° W 02:34:06 54° W 02:40:22 10° N
Cosmos 1140 Rocket 3.4 02:33:23 10° NNW 02:38:33 80° ENE 02:39:18 64° SE
Meteor 1-19 Rocket 4.3 02:33:17 10° N 02:39:08 78° E 02:40:52 47° SSE
Cosmos 1544 Rocket 3.7 02:39:49 65° E 02:39:49 65° E 02:44:09 10° NNE
SL-16 R/B 3.5 02:35:40 10° SE 02:41:28 45° ENE 02:47:20 10° N
UNK 4.2 02:38:41 37° WSW 02:42:17 68° NW 02:46:10 10° NE
Resurs 1-4 Rocket 2.9 02:37:27 10° NNE 02:42:30 44° E 02:44:12 33° SE
Cosmos 2123 Rocket 3.9 02:36:58 10° N 02:43:20 86° W 02:45:11 49° S
Cosmos 1633 3.6 02:44:38 42° N 02:44:38 42° N 02:47:08 10° N
COSMOS 2487 3.8 02:41:01 10° NNW 02:43:23 38° N 02:43:23 38° N
Atlas Centaur 2 4.4 02:43:36 21° SSE 02:44:47 22° SSE 02:50:51 10° ESE
Meteor 2-16 Rocket 4.4 02:43:53 57° SW 02:44:51 66° W 02:50:59 10° N
SL-08 R/B 3.9 02:47:12 46° WNW 02:47:12 46° WNW 02:51:14 10° NNW
ADEOS 3.5 02:44:19 10° N 02:49:28 63° WNW 02:49:59 60° WSW
USA 161 3.7 02:51:54 24° N 02:51:54 24° N 02:53:16 10° N
Meteor 1-11 Rocket 4.2 02:53:38 45° W 02:54:24 47° WNW 03:00:09 10° N
ATLAS 5 CENTAUR R/B 3.1 02:49:44 10° NNW 02:55:45 56° ENE 03:02:07 10° SE
Cosmos 1400 Rocket 3.2 03:01:45 50° NW 03:01:45 50° NW 03:05:05 10° N
Cosmos 2278 Rocket 2.8 03:00:30 38° W 03:01:31 41° WNW 03:06:52 10° N
Skynet4D Del rocket 4.0 03:03:43 39° SSE 03:03:43 39° SSE 03:08:01 10° ESE
Cosmos 1850 Rocket 3.9 02:58:04 10° NNW 03:03:20 79° WSW 03:05:09 42° S
Cosmos 2297 3.6 03:02:28 50° SSW 03:04:00 83° WNW 03:09:43 10° NNE
H-2A R/B 4.2 03:02:24 33° SW 03:04:59 36° S 03:41:56 10° SE
Cosmos 1741 Rocket 3.9 03:01:47 10° NNW 03:07:03 75° WSW 03:08:55 41° S
Cosmos 2173 Rocket 4.4 03:04:07 23° SSE 03:07:53 59° E 03:13:56 10° NNE
Cosmos 1892 Rocket 3.4 03:04:29 10° N 03:08:49 76° W 03:09:21 65° SSW
Centaur D-1A AC-32 4.3 03:09:38 33° SW 03:12:52 45° S 03:58:17 10° ESE
Meteor 1-23 Rocket 4.1 03:07:37 10° NNW 03:13:18 75° W 03:15:52 33° S
Yuri Rocket 3.9 03:13:22 39° WSW 03:15:11 50° SSW 03:20:10 10° ESE
CZ-2D R/B 4.3 03:11:58 10° NNE 03:15:50 44° E 03:17:38 27° SSE
Meteor 1-5 Rocket 4.2 03:15:58 38° SSW 03:18:20 73° W 03:24:05 10° N
Cosmos 1459 Rocket 4.1 03:16:06 24° S 03:20:06 79° E 03:26:25 10° N
ASC 2 Rocket 4.2 03:22:45 29° S 03:22:45 29° S 03:26:06 10° SE
Cosmos 1802 Rocket 4.1 03:19:21 20° S 03:23:42 71° E 03:29:47 10° N
PSLV R/B 3.1 03:24:28 80° SSW 03:24:37 84° SSE 03:28:00 10° ENE
Cosmos 2082 Rocket 3.0 03:19:17 10° N 03:24:53 54° ENE 03:30:25 10° SE
CZ-4B R/B 4.4 03:21:04 10° NNE 03:26:22 40° E 03:31:36 10° SSE
Cosmos 614 Rocket 4.1 03:25:16 10° NNW 03:30:13 49° WSW 03:32:10 32° SSW
BREEZE-M DEB (TANK) 3.2 03:29:04 33° WSW 03:31:06 74° NW 03:34:32 10° NE
Cosmos 2100 Rocket 3.9 03:27:41 26° SSW 03:31:24 78° W 03:37:45 10° N
Cosmos 1315 Rocket 3.3 03:31:10 39° W 03:31:41 41° W 03:35:31 10° N
APEX 3.7 03:33:46 31° NW 03:33:46 31° NW 03:36:33 10° N
USA 234 3.2 03:27:49 10° SSE 03:34:15 64° SW 03:40:45 10° NW
IRS-1D 4.0 03:30:01 10° N 03:34:42 41° WNW 03:36:26 30° WSW
BREEZE-M TANK 1.9 03:32:57 18° NW 03:34:46 90° SW 03:39:31 10° SE
Cosmos 1602 Rocket 3.6 03:34:27 10° N 03:38:47 77° E 03:42:45 12° S
Cosmos 1346 Rocket 4.1 03:36:11 10° N 03:40:00 40° E 03:43:45 10° SSE
Meteor 2-4 Rocket 4.2 03:35:36 10° NNW 03:40:28 37° W 03:42:22 28° SW
CZ-2D R/B 2.8 03:43:37 10° N 03:48:43 41° WNW 03:51:36 23° SW
CENTAUR R/B 3.8 03:42:19 10° NW 03:49:08 31° WSW 03:55:47 11° SSW
Cosmos 1975 2.9 03:48:44 29° SSW 03:50:36 60° W 03:54:33 10° N
UNK 4.2 03:49:05 25° SSW 03:51:12 40° W 03:55:35 10° NNW
Cosmos 1455 Rocket 4.4 03:50:38 22° W 03:51:41 24° WNW 03:55:17 10° NNW
Cosmos 1174 3.0 03:48:39 10° NNW 03:52:00 88° WSW 03:54:58 10° SSE
Okean O Rocket 1.5 03:50:32 10° N 03:54:52 80° WNW 03:58:01 18° SSW
Cosmos 1626 Rocket 3.5 03:51:22 10° NNW 03:55:42 65° W 03:59:42 12° S
SME Rocket 3.4 03:54:19 26° SW 03:55:43 36° W 03:59:24 10° NNW
CZ-4B R/B 3.5 03:51:22 10° NNE 03:55:50 61° E 04:00:08 10° S
UNKNOWN OBJECT B 3.6 03:52:14 10° N 03:55:59 36° WNW 03:57:45 24° WSW
Meteor 1-12 Rocket 4.5 03:52:06 20° SSW 03:56:04 56° W 04:01:46 10° N
Cosmos 1486 Rocket 4.5 03:51:25 10° N 03:56:44 66° ENE 04:02:01 10° SSE
ARIANE 5 R/B 4.0 03:57:50 10° NNW 04:01:24 20° WNW 04:03:35 15° W
Cosmos 1833 Rocket 2.7 03:56:48 10° NNW 04:02:26 89° ENE 04:08:02 10° SSE
NOSS 8 (F) 4.4 04:01:34 22° SSW 04:03:43 85° ESE 04:07:15 10° NNE
Cosmos 2098 Rocket 3.4 04:00:39 10° S 04:03:59 54° E 04:08:07 10° NNE
Timation 2 Rocket 4.4 04:00:35 10° NW 04:06:01 36° WSW 04:11:22 10° SSW
PSLV R/B 4.3 04:07:17 10° N 04:11:17 48° WNW 04:14:18 16° SW
USA 129 2.4 04:13:45 29° WSW 04:14:03 31° W 04:15:56 10° NNW
DNEPR-1 R/B 4.1 04:11:21 10° NNW 04:16:37 71° ENE 04:21:00 10° SE
MOZ.5/SAFIR/RUBIN 5/SL-8 3.8 04:15:31 10° S 04:20:17 76° W 04:25:04 10° NNW
Resurs 1-4 Rocket 3.7 04:18:20 10° NNW 04:21:57 19° WNW 04:25:17 11° WSW
Thor Agena Rocket 3.5 04:17:39 10° S 04:22:50 78° WSW 04:27:58 10° NNW
Cosmos 1606 Rocket 3.5 04:20:44 10° S 04:25:09 87° W 04:29:33 10° N
SL-16 R/B 3.6 04:20:47 12° SW 04:25:11 23° W 04:30:02 10° NW
Cosmos 2369 Rocket 2.6 04:25:13 10° S 04:30:50 66° ESE 04:36:28 10° NNE
Atlas Centaur 2 3.6 04:26:14 11° SW 04:34:00 49° SSE 04:41:53 10° E
CZ-3C R/B 2.9 04:33:46 10° SSW 04:36:32 17° SSE 04:42:28 10° SE
Cosmos 2233 Rocket 4.0 04:33:30 10° S 04:39:45 83° W 04:45:59 10° N
ATLAS 5 CENTAUR R/B 3.6 04:35:32 10° WNW 04:40:10 22° WSW 04:44:57 10° SSW
ADEOS II 2.5 04:35:48 10° NNE 04:41:03 69° ESE 04:46:17 10° S
Cosmos 1953 Rocket 3.6 04:36:50 10° N 04:41:12 88° ENE 04:45:32 10° S
Cosmos 1725 Rocket 4.5 04:39:03 10° SSW 04:44:58 43° W 04:50:54 10° N
Meteor 2-17 Rocket 4.5 04:41:38 10° S 04:47:45 84° W 04:53:56 10° N
SL-8 R/B 3.8 04:45:31 10° SW 04:50:18 76° NW 04:55:04 10° NE
ARGOS Delta rocket 4.3 04:46:34 10° N 04:52:00 62° WNW 04:57:21 10° SSW
